Geostationary
NORAD ID: 21111
Int'l Code: 1991-010A
Perigee: 35,750.1 km
Apogee: 35,830.1 km
Inclination: 13.7 °
Period: 1,435.9 minutes
Semi major axis: 42161 km
Launch date: February 14, 1991
Source: Commonwealth of Independent States (former USSR) (CIS)
Two Line Element Set (TLE):
1 21111U 91010A 13141.99436418 -.00000105 00000-0 00000+0 0 6219
2 21111 013.6514 026.6014 0009482 051.1487 234.9434 01.00284793 81569
Source:
NASA's NSSDC Master Catalog entry for COSMOS 2133